Total_Precipitation_Accumulation
0.28 0.28 0.29 0.26 0.25 0.26 0.30 0.40 0.57 0.41 0.12 0.04 0.05 0.07 0.09 0.13 0.18 0.18 0.17 0.21 0.28 0.35 0.39 0.42 0.47 0.58 0.90 1.57 2.54 3.22 3.11 2.47 1.78 1.43 1.49 1.79 2.26 2.71
0.33 0.34 0.34 0.33 0.32 0.32 0.34 0.36 0.44 0.53 0.33 0.07 0.07 0.08 0.10 0.13 0.18 0.19 0.19 0.22 0.24 0.29 0.34 0.37 0.42 0.52 0.68 0.99 1.58 2.51 3.12 3.07 2.48 1.92 1.74 1.88 2.13 2.60
0.34 0.38 0.39 0.37 0.37 0.35 0.37 0.38 0.37 0.45 0.45 0.14 0.06 0.08 0.14 0.17 0.19 0.19 0.21 0.19 0.17 0.21 0.28 0.36 0.41 0.49 0.62 0.80 1.08 1.68 2.55 3.07 3.07 2.60 2.22 2.07 2.06 2.23
0.49 0.48 0.48 0.48 0.50 0.48 0.49 0.46 0.42 0.40 0.47 0.32 0.11 0.08 0.15 0.23 0.29 0.27 0.23 0.20 0.17 0.19 0.24 0.31 0.39 0.46 0.57 0.71 0.88 1.17 1.76 2.50 2.98 2.96 2.57 2.23 2.09 2.17
0.77 0.76 0.72 0.69 0.71 0.69 0.68 0.60 0.50 0.41 0.41 0.40 0.23 0.14 0.17 0.26 0.36 0.37 0.32 0.25 0.19 0.21 0.24 0.29 0.35 0.40 0.48 0.59 0.72 0.89 1.16 1.59 2.21 2.77 2.95 2.67 2.32 2.18
0.90 0.91 0.96 0.98 0.99 0.95 0.93 0.78 0.62 0.54 0.48 0.48 0.38 0.26 0.22 0.29 0.46 0.51 0.47 0.37 0.27 0.23 0.26 0.28 0.33 0.38 0.40 0.43 0.48 0.62 0.88 1.27 1.72 2.30 2.84 2.98 2.65 2.36
0.67 0.69 0.79 0.96 1.09 1.16 1.19 1.05 0.91 0.85 0.75 0.69 0.58 0.46 0.38 0.42 0.56 0.61 0.66 0.59 0.49 0.38 0.30 0.25 0.26 0.27 0.28 0.33 0.41 0.52 0.71 0.95 1.27 1.72 2.30 2.82 2.87 2.66
0.50 0.48 0.51 0.66 0.79 0.90 1.06 1.12 1.18 1.24 1.18 1.03 0.86 0.71 0.53 0.49 0.57 0.74 0.81 0.88 0.81 0.56 0.47 0.39 0.33 0.31 0.28 0.27 0.32 0.42 0.59 0.81 1.07 1.36 1.74 2.23 2.66 2.78
0.35 0.34 0.32 0.39 0.53 0.55 0.68 0.82 0.98 1.17 1.29 1.26 1.19 0.92 0.67 0.56 0.67 0.84 0.91 0.97 0.88 0.73 0.74 0.72 0.57 0.46 0.38 0.36 0.40 0.43 0.52 0.67 0.87 1.09 1.34 1.68 2.12 2.54
0.33 0.28 0.23 0.25 0.40 0.52 0.63 0.65 0.67 0.83 1.09 1.24 1.32 1.14 0.88 0.78 0.91 1.10 1.21 1.18 1.02 0.95 0.98 1.02 0.78 0.62 0.56 0.52 0.49 0.45 0.46 0.53 0.67 0.85 1.05 1.29 1.60 2.04
0.34 0.30 0.26 0.22 0.42 0.59 0.57 0.51 0.48 0.57 0.73 0.98 1.16 1.18 1.12 1.11 1.17 1.37 1.48 1.53 1.41 1.18 1.13 1.19 1.03 0.81 0.75 0.75 0.67 0.55 0.47 0.47 0.54 0.68 0.84 1.01 1.23 1.62
0.32 0.30 0.38 0.39 0.49 0.53 0.47 0.48 0.53 0.50 0.48 0.55 0.63 0.73 0.77 0.80 1.01 1.22 1.36 1.49 1.50 1.51 1.30 1.24 1.28 1.20 1.22 0.98 0.78 0.57 0.47 0.48 0.53 0.58 0.66 0.77 0.96 1.17
0.34 0.32 0.32 0.45 0.47 0.47 0.48 0.48 0.60 0.54 0.43 0.49 0.53 0.55 0.60 0.66 0.73 0.93 1.17 1.35 1.50 1.52 1.33 1.36 1.55 1.39 1.35 1.19 0.94 0.72 0.50 0.44 0.46 0.57 0.64 0.72 0.82 0.90
0.38 0.28 0.29 0.39 0.42 0.47 0.47 0.51 0.54 0.51 0.47 0.47 0.46 0.44 0.50 0.59 0.68 0.78 0.95 1.10 1.21 1.29 1.23 1.34 1.67 1.53 1.38 1.16 0.99 0.90 0.70 0.54 0.46 0.48 0.53 0.75 0.87 0.91
0.54 0.52 0.45 0.46 0.43 0.36 0.37 0.44 0.44 0.40 0.46 0.47 0.41 0.37 0.41 0.52 0.60 0.69 0.77 0.88 0.99 1.07 1.16 1.23 1.45 1.56 1.50 1.27 0.95 0.86 0.87 0.79 0.60 0.52 0.53 0.58 0.65 0.74
0.60 0.56 0.51 0.48 0.40 0.33 0.32 0.30 0.29 0.33 0.43 0.45 0.40 0.36 0.37 0.45 0.55 0.66 0.79 0.85 0.95 0.99 1.10 1.22 1.38 1.63 1.62 1.22 1.01 0.89 0.79 0.88 0.77 0.57 0.54 0.57 0.59 0.56
0.60 0.57 0.48 0.40 0.37 0.31 0.26 0.22 0.23 0.29 0.37 0.37 0.39 0.41 0.41 0.44 0.50 0.60 0.80 0.92 1.00 0.96 1.09 1.31 1.42 1.58 1.64 1.51 1.32 1.00 0.79 0.72 0.71 0.62 0.59 0.66 0.72 0.66
0.63 0.57 0.41 0.32 0.29 0.28 0.27 0.24 0.24 0.26 0.29 0.35 0.39 0.40 0.43 0.47 0.52 0.58 0.74 0.91 0.97 0.93 1.02 1.25 1.48 1.70 1.83 1.80 1.55 1.16 0.91 0.78 0.76 0.71 0.62 0.67 0.79 0.82
0.48 0.38 0.28 0.27 0.28 0.27 0.26 0.25 0.23 0.21 0.25 0.33 0.38 0.39 0.44 0.51 0.56 0.61 0.69 0.81 0.89 0.91 0.98 1.13 1.42 1.70 1.81 1.78 1.81 1.47 1.15 0.95 0.91 0.92 0.79 0.66 0.68 0.76
0.32 0.31 0.28 0.25 0.26 0.27 0.26 0.26 0.25 0.24 0.27 0.30 0.33 0.36 0.43 0.51 0.55 0.58 0.64 0.76 0.85 0.91 0.97 1.06 1.32 1.59 1.70 1.57 1.60 1.66 1.59 1.28 1.07 1.05 0.95 0.81 0.75 0.88
0.28 0.27 0.27 0.27 0.28 0.28 0.27 0.27 0.29 0.30 0.29 0.31 0.32 0.33 0.37 0.46 0.50 0.49 0.55 0.66 0.79 0.87 0.91 0.94 1.12 1.38 1.58 1.54 1.45 1.44 1.65 1.69 1.33 1.12 1.02 1.01 0.99 1.02
0.29 0.31 0.29 0.29 0.30 0.31 0.31 0.31 0.31 0.29 0.28 0.29 0.28 0.28 0.31 0.38 0.43 0.43 0.49 0.57 0.65 0.73 0.80 0.86 1.00 1.33 1.62 1.65 1.48 1.38 1.55 1.76 1.79 1.47 1.18 1.05 1.11 1.15
0.37 0.38 0.35 0.31 0.29 0.29 0.32 0.32 0.31 0.27 0.24 0.24 0.25 0.25 0.27 0.31 0.33 0.37 0.42 0.49 0.56 0.63 0.73 0.86 0.98 1.22 1.51 1.62 1.57 1.44 1.43 1.54 1.65 1.60 1.54 1.24 0.85 0.67